Regional Weather Roundup
Issued by NWS Wakefield, VA

Home | Current Version | Previous Version | Text Only | Print | Product List | Glossary Off
Versions: 1 2 3 4 5 6 7 8 9 10 11 12 13 14 15 16 17 18 19 20 21 22 23 24 25 26 27 28 29 30 31 32 33 34 35 36 37 38 39 40 41 42 43 44 45 46 47 48 49 50

000
ASUS41 KAKQ 290015
RWRAKQ

REGIONAL WEATHER ROUNDUP
NATIONAL WEATHER SERVICE WAKEFIELD VA
800 PM EDT THU JUL 28 2016

Note: "fair" indicates few or no clouds below 12,000 feet with no
significant weather and/or obstructions to visibility. * = Denotes
station may not report precipitation (e.g., rain,snow,etc.),
thunder or fog.

VAZ042-051-052>054-056-290100-
NORTHERN VIRGINIA

CITY           SKY/WX    TMP DP  RH WIND       PRES   REMARKS
WASH NATIONAL  MOCLDY    80  72  76 NE15      29.85R
DULLES         CLOUDY    76  72  87 NE9       29.85S
FORT BELVOIR   NOT AVBL
QUANTICO       TSTM      80  74  81 NE15      29.81S
FREDERICKSBRG* FAIR      79  79 100 NE7       29.79F
STAFFORD*      TSTM      77  74  91 NE7G13    29.85F
WARRENTON      TSTM      77  70  80 N13       29.85R
CULPEPER*      TSTM      75  74  96 N9        29.88R
MANASSAS*      CLOUDY    79  72  78 E6        29.84R
LEESBURG*      CLOUDY    77  77 100 N6        29.88R
WINCHESTER     RAIN      72  70  94 NW5       29.91R
FRONT ROYAL*   CLOUDY    70  70 100 NE3       29.87F
LURAY*         CLOUDY   N/A N/A N/A CALM      29.89S
$$

VAZ048-049-060>072-079>083-290100-
CENTRAL AND SOUTH CENTRAL VIRGINIA

CITY           SKY/WX    TMP DP  RH WIND       PRES   REMARKS
RICHMOND       MOCLDY    89  75  63 SW7       29.79R HX  99
CHESTERFIELD*  FAIR      88  66  48 SW3       29.80S
PETERSBURG*    FAIR      84  81  89 CALM      29.81R HX  99
HANOVER        FAIR      85  76  74 E6        29.81R
TAPPAHANNOCK*  FAIR      78  78 100 E3        29.82R
QUINTON*       FAIR      89  80  74 CALM      29.79R HX 106
CHARLOTTSVILLE LGT RAIN  81  72  74 N9        29.82R
GORDONSVILLE*  FAIR      78  75  91 N5        29.82S
ORANGE*          N/A     77  77 100 N7        29.84F THUNDER
LOUISA*        RAIN      84  77  79 N5        29.80S
BUMPASS*       CLOUDY    78  75  92 NE7       29.79F
FARMVILLE*     FAIR      84  77  79 CALM      29.79S
CREWE*         NOT AVBL
FORT PICKETT*  FAIR      83  79  86 S6        29.81S HX  95
CHASE CITY*    MOCLDY    85  83  91 CALM      29.82R HX 104
CLARKSVILLE*   FAIR      86  77  74 SW5       29.81S HX  97
SOUTH HILL*    FAIR      87  78  76 S3        29.87R HX 100
LAWRENCEVILLE* FAIR      87  79  77 CALM      29.80S HX 100
EMPORIA*       FAIR      88  73  62 CALM      29.82R HX  96
$$

VAZ088>098-290100-
SOUTHEAST VIRGINIA

CITY           SKY/WX    TMP DP  RH WIND       PRES   REMARKS
NORFOLK        CLOUDY    88  74  63 SE9       29.82R HX  96
VIRGINIA BEACH MOCLDY    88  73  61 SE6       29.81R THUNDER HX  95
NORFOLK NAVAL  MOCLDY    89  76  65 S6        29.83R HX 100
WEST POINT*    FAIR      89  77  67 CALM      29.82R HX 102
SALUDA*        MOCLDY    86  80  83 CALM      29.81R HX 101
NEWPORT NEWS   FAIR      89  77  67 S6        29.80R HX 101
LANGLEY AFB    NOT AVBL
FORT EUSTIS    FAIR      91  80  69 SW6       29.79R HX 109
WILLIAMSBURG*  FAIR      93  79  62 S3        29.81R HX 110
HR EXEC AP*    FAIR      90  79  70 S5        29.82R HX 105
FRANKLIN*      FAIR      89  75  62 S3        29.82R HX  99
US460-WAKEFLD  FAIR      89  77  67 CALM      29.81R HX 101
$$

VAZ020-022-025-037-045-290100-
WEST CENTRAL AND SOUTHWEST VIRGINIA

CITY           SKY/WX    TMP DP  RH WIND       PRES   REMARKS
STAUNTON*      MOCLDY    73  69  85 N12       29.91S
WAYNESBORO*    CLOUDY    73  70  88 N5        29.90S
HOT SPRINGS VA LGT RAIN  70  70 100 W7G20     30.02R VSB 3/4
LYNCHBURG      LGT RAIN  74  73  97 S8        29.86S
DANVILLE       MOCLDY    87  75  67 S3        29.82R HX  96
SOUTH BOSTON*  FAIR     N/A N/A N/A CALM      29.81R
MARTINSVILLE   MOCLDY    81  73  76 CALM      29.86S
ROANOKE        FAIR      82  74  76 NE6       29.87F
BLACKSBURG     CLOUDY    82  73  75 S5        29.94F
DUBLIN*        MOCLDY    80  73  77 S6        29.93S
MARION*        CLOUDY    79  69  71 W6        29.98R
HILLSVILLE*    LGT RAIN  72  71  98 CALM      29.96S
RICHLANDS*     RAIN      69  69 100 NW14G21   30.01R
WISE*          RAIN      68  68 100 CALM      30.01R
ABINGDON*      CLOUDY    80  68  67 NW8       29.95R
$$

MDZ021>025-VAZ099-100-290100-
SOUTHERN MARYLAND AND THE DELMARVA PENINSULA

CITY           SKY/WX    TMP DP  RH WIND       PRES   REMARKS
PATUXENT RIVER LGT RAIN  77  73  87 SE5       29.85F
BAY BRIDGE APT CLOUDY    77  73  88 SE9       29.86R
LEONARDTOWN    CLOUDY    73  72  94 E3        29.87S
DOVER          NOT AVBL
GEORGETOWN     LGT RAIN  74  73  97 SE6       29.88F FOG
EASTON         CLOUDY    75  75 100 SE7       29.91R
CAMBRIDGE      CLOUDY    72  72 100 E3        29.88S
SALISBURY      NOT AVBL
OCEAN CITY       N/A    N/A N/A N/A MISG      29.86R
WALLOPS ISLAND FAIR      82  79  90 SE8       29.85F THUNDER
ACCOMACK*      TSTM      79  72  78 S12G24    29.84R
$$

NCZ012>017-030>032-290100-
NORTH CENTRAL AND EASTERN NORTH CAROLINA

CITY           SKY/WX    TMP DP  RH WIND       PRES   REMARKS
ROANOKE RAPIDS FAIR      88  77  70 S3        29.81R HX 100
RALEIGH        PTCLDY    91  70  49 SW13      29.83S HX  96
ELIZABETH CITY CLEAR     91  75  59 S8        29.82R HX 101
AHOSKIE*       CLEAR     85  76  74 S3        29.82R
EDENTON*       CLEAR     92  75  56 S9        29.83R HX 102
CURRITUCK*     CLEAR     87  83  87 CALM      29.83R HX 109
KILL DEVIL HLS CLEAR     92  76  59 S6        29.82F HX 104
MANTEO           N/A     91  77  64 SW14      29.84S HX 104
CAPE HATTERAS  CLEAR     84  79  85 SW14G20   29.86F HX  96
TARBORO*       FAIR      90  75  62 S6        29.83R HX 100
GOLDSBORO      NOT AVBL
WASHINGTON     CLEAR     90  75  62 S6        29.83R HX 100
GREENVILLE     CLEAR     91  73  55 SW8       29.85S HX 100
NEW BERN       CLEAR     87  76  69 S6        29.86S HX  97
WILMINGTON     CLEAR     87  74  64 SW14G23   29.89R HX  95
$$

VAZ048-290100-
ELSEWHERE

CITY           SKY/WX    TMP DP  RH WIND       PRES   REMARKS
HARRISBURG PA  LGT RAIN  77  71  82 E9        29.87F
BALTIMORE      CLOUDY    76  72  87 NE9       29.85R
ANNAPOLIS      CLOUDY    79  76  90 SE17      29.87R
ANDREWS AFB    NOT AVBL
PHILADELPHIA   CLOUDY    76  72  87 SE6       29.87S
GREENSBORO     PTCLDY    90  66  45 SW9       29.84S
ROCKY MOUNT    CLEAR     90  73  57 S10       29.82S HX  98
$$

VAZ100-290100-
MARINE

STATION/POSITION TIME  TEMP    WIND        PRES    WAVE   SWELL
                       AIR SEA DIR/SP/G            HT/PER HT/PER
                 (UTC) (F)     (DEG/KT/KT) (MB)    (FT/S) (FT/S)
BRANDYWINE LGT   2300           70/  8/ 11   N/A
CAPE MAY NJ      2300      73                N/A
LEWES DE         2300      76                N/A
OCEAN-CITY-INLET 2300      72                N/A
WACHAPREAGUE VA  2300      89                N/A
THOMAS POINT MD  0000   77 84  130/ 18/ 20 1012.5R
GOOSES REEF MD   0000   77 86  120/ 14/ 17 1012.9R   2/ 3
COVE POINT MD    2300          160/ 14/ 20   N/A
SOLOMONS ISLAND  2300      87                N/A
BISHOPS HEAD MD  2300          170/  6/ 10   N/A
PINEY POINT MD   2300          350/  8/ 11   N/A
POTOMAC MD       0000   76 85   80/ 10/ 16 1009.4R   1
CAMBRIDGE MD     2300      88                N/A
LEWISETTA VA     2300      88                N/A
RAPPAHANNOCK LGT 2300          140/ 20/ 22   N/A
STINGRAY PT      2300   87 87  110/ 16/ 17 1009.3R   1/ 2
YORK RVR RNG VA  2300          160/ 18/ 21   N/A
YORKTOWN VA      2300      85                N/A
JAMESTOWN VA     0000   91     180/  6/ 10   N/A     0
DOMINION TERM VA 2300          230/ 10/ 12   N/A
KIPTOPEKE VA     2300      81                N/A
CHES BAY BRIDGE  2300      70                N/A
CAPE HENRY VA    2300          140/  7/ 10   N/A
WILLOUBY STN VA  2300          110/ 10/ 11   N/A
CAPE HENRY BUOY  2312      77                N/A     2/ 3
1ST LANDING BUOY 0000   82 80  210/ 23/ 41 1008.6F   1/ 3
CAPE CHARLES BUO 2326      79                N/A     1/ 3
OFFSHORE WE BUOY 2321      83                N/A     2/ 7
64NM E OF VA BCH 2350   84 82  190/ 12/ 14 1010.4R   2/ 6   2/ 6
DUCK PIER NC     2300      73                N/A
44100 DUCK FRF   2305      79                N/A     2/ 8
44056 DUCK FRF   2311      80                N/A     1/ 7
OREGON INLET NC  2300      84                N/A
HATTERAS NC      2300      84                N/A
DIAMOND SHLS NC  2350   87 85  220/ 16/ 19 1011.2F   3/ 4   2/ 8
CAPE LOOKOUT NC  0000   85     220/ 12/ 17 1011.5R
$$



USA.gov is the U.S. government's official web portal to all federal, state and local government web resources and services.